User: anonymous   Login
Location: Unspecified
(0.0000°N, 0.0000°E)
Time: 17:30:37
(UTC+01:00)
Language:

Cosmos 1072 Rocket - Orbit

View from above orbital plane
View from above orbital plane
View from above satellite
View from above satellite

Ground track
Ground track

The orbit data is extracted from the following two-line orbital elements,

1 11239U 79003B   14324.83731977  .00000136  00000-0  12364-3 0  3953
2 11239 082.9402 065.7823 0041983 135.9364 340.0440 13.75750976798694
Epoch (UTC): 20 November 2014 20:05:44
Eccentricity: 0.0041983
inclination: 82.9402°
perigee height: 948 km
apogee height: 1010 km
right ascension of ascending node: 65.7823°
argument of perigee: 135.9364°
revolutions per day: 13.75750976
mean anomaly at epoch: 340.0440°
orbit number at epoch: 79869

The dashed part of the orbit path shows where the satellite is in the earth's shadow,  

DLR